TimeCDT,TemperatureF,Dew PointF,Humidity,Sea Level PressureIn,VisibilityMPH,Wind Direction,Wind SpeedMPH,Gust SpeedMPH,PrecipitationIn,Events,Conditions,WindDirDegrees,DateUTC
12:15 AM,53.1,34.2,49,29.88,10.0,South,13.8,-,N/A,,Clear,190,2012-10-09 05:15:00
12:35 AM,52.7,34.2,49,29.88,10.0,SSW,11.5,-,N/A,,Clear,200,2012-10-09 05:35:00
12:55 AM,52.7,34.2,49,29.88,10.0,SSW,12.7,17.3,N/A,,Clear,200,2012-10-09 05:55:00
1:15 AM,52.2,34.2,50,29.87,10.0,SSW,10.4,17.3,N/A,,Clear,200,2012-10-09 06:15:00
1:55 AM,51.4,34.3,52,29.88,10.0,SSW,9.2,-,N/A,,Clear,200,2012-10-09 06:55:00
2:15 AM,51.6,34.5,52,29.89,10.0,SSW,6.9,-,N/A,,Clear,210,2012-10-09 07:15:00
2:55 AM,52.3,34.7,51,29.88,10.0,SSW,10.4,-,N/A,,Clear,210,2012-10-09 07:55:00
3:15 AM,52.7,34.9,51,29.87,10.0,SSW,9.2,-,N/A,,Clear,210,2012-10-09 08:15:00
3:35 AM,52.7,35.2,52,29.87,10.0,SSW,9.2,-,N/A,,Clear,210,2012-10-09 08:35:00
3:55 AM,52.7,35.2,52,29.87,10.0,SW,8.1,-,N/A,,Clear,220,2012-10-09 08:55:00
4:15 AM,52.9,35.6,52,29.86,10.0,SSW,8.1,-,N/A,,Clear,210,2012-10-09 09:15:00
4:35 AM,52.7,35.6,52,29.86,10.0,SW,10.4,-,N/A,,Clear,220,2012-10-09 09:35:00
4:55 AM,52.3,35.6,53,29.86,10.0,SSW,10.4,-,N/A,,Clear,200,2012-10-09 09:55:00
5:15 AM,52.2,35.8,54,29.85,10.0,SSW,10.4,17.3,N/A,,Clear,200,2012-10-09 10:15:00
5:35 AM,51.8,36.0,55,29.85,10.0,SSW,11.5,16.1,N/A,,Clear,210,2012-10-09 10:35:00
5:55 AM,51.8,36.0,55,29.85,10.0,SSW,10.4,18.4,N/A,,Clear,210,2012-10-09 10:55:00
6:15 AM,52.0,36.1,55,29.85,10.0,SSW,11.5,-,N/A,,Clear,210,2012-10-09 11:15:00
6:55 AM,52.0,36.1,55,29.85,10.0,SSW,8.1,16.1,N/A,,Clear,210,2012-10-09 11:55:00
7:15 AM,52.0,36.3,55,29.85,10.0,SW,6.9,-,N/A,,Clear,220,2012-10-09 12:15:00
7:55 AM,52.0,36.5,56,29.86,10.0,SW,8.1,-,N/A,,Clear,220,2012-10-09 12:55:00
8:15 AM,52.3,36.7,55,29.86,10.0,SW,9.2,-,N/A,,Clear,220,2012-10-09 13:15:00
8:35 AM,53.1,37.0,55,29.86,10.0,SW,6.9,-,N/A,,Clear,220,2012-10-09 13:35:00
8:55 AM,53.8,37.2,54,29.87,10.0,SW,8.1,-,N/A,,Clear,230,2012-10-09 13:55:00
9:15 AM,54.9,37.4,52,29.87,10.0,WSW,9.2,16.1,N/A,,Clear,240,2012-10-09 14:15:00
9:35 AM,56.1,37.4,49,29.87,10.0,WSW,10.4,-,N/A,,Clear,240,2012-10-09 14:35:00
9:55 AM,56.8,37.4,48,29.87,10.0,West,12.7,17.3,N/A,,Clear,260,2012-10-09 14:55:00
10:15 AM,57.4,37.4,47,29.87,10.0,West,10.4,-,N/A,,Clear,260,2012-10-09 15:15:00
10:35 AM,57.7,37.8,47,29.88,10.0,WSW,10.4,16.1,N/A,,Clear,240,2012-10-09 15:35:00
10:55 AM,59.0,37.4,45,29.87,10.0,West,11.5,16.1,N/A,,Clear,260,2012-10-09 15:55:00
11:15 AM,59.2,37.4,44,29.87,10.0,West,6.9,-,N/A,,Clear,260,2012-10-09 16:15:00
11:35 AM,59.9,37.4,43,29.88,10.0,WSW,9.2,-,N/A,,Clear,250,2012-10-09 16:35:00
11:55 AM,60.4,37.4,42,29.87,10.0,West,10.4,-,N/A,,Clear,270,2012-10-09 16:55:00
12:15 PM,61.3,39.2,44,29.88,10.0,West,10.4,-,N/A,,Clear,270,2012-10-09 17:15:00
12:35 PM,62.4,39.7,43,29.88,10.0,NW,13.8,-,N/A,,Scattered Clouds,310,2012-10-09 17:35:00
12:55 PM,61.5,39.0,43,29.87,10.0,NW,12.7,-,N/A,,Mostly Cloudy,320,2012-10-09 17:55:00
1:15 PM,61.3,39.4,44,29.88,10.0,NNW,12.7,20.7,N/A,,Mostly Cloudy,330,2012-10-09 18:15:00
1:35 PM,59.4,41.4,51,29.89,10.0,NNW,18.4,-,N/A,,Overcast,330,2012-10-09 18:35:00
1:55 PM,56.8,41.2,56,29.90,10.0,NW,19.6,24.2,N/A,,Overcast,320,2012-10-09 18:55:00
2:15 PM,55.6,40.3,56,29.91,10.0,NNW,18.4,-,N/A,,Overcast,330,2012-10-09 19:15:00
2:35 PM,54.7,40.1,58,29.92,10.0,NNW,13.8,19.6,N/A,,Overcast,330,2012-10-09 19:35:00
2:55 PM,54.1,39.7,58,29.93,10.0,NW,16.1,-,N/A,,Overcast,310,2012-10-09 19:55:00
3:15 PM,53.1,40.1,61,29.94,10.0,NNW,15.0,21.9,N/A,,Overcast,330,2012-10-09 20:15:00
3:35 PM,52.2,39.4,62,29.94,10.0,NW,17.3,-,N/A,,Overcast,320,2012-10-09 20:35:00
3:55 PM,49.3,40.6,72,29.96,10.0,NW,18.4,28.8,N/A,Rain,Light Rain,320,2012-10-09 20:55:00
4:15 PM,46.0,40.6,81,29.98,7.0,NW,13.8,23.0,N/A,Rain,Rain,310,2012-10-09 21:15:00
4:35 PM,45.5,41.9,87,29.98,10.0,WNW,8.1,-,N/A,Rain,Rain,290,2012-10-09 21:35:00
4:55 PM,45.5,42.8,90,29.97,10.0,West,5.8,-,0.01,Rain,Light Rain,260,2012-10-09 21:55:00
5:15 PM,45.5,42.4,89,29.96,10.0,WNW,3.5,-,N/A,,Light Drizzle,290,2012-10-09 22:15:00
5:35 PM,45.7,42.6,89,29.96,10.0,West,5.8,-,N/A,,Clear,260,2012-10-09 22:35:00
5:55 PM,45.9,41.9,86,29.97,10.0,WSW,6.9,-,N/A,,Clear,250,2012-10-09 22:55:00
6:15 PM,46.0,41.2,83,29.96,10.0,West,6.9,-,N/A,,Clear,280,2012-10-09 23:15:00
6:35 PM,46.0,41.0,83,29.96,10.0,West,6.9,-,N/A,,Clear,270,2012-10-09 23:35:00
6:55 PM,46.0,39.6,78,29.98,10.0,West,8.1,-,N/A,,Clear,280,2012-10-09 23:55:00
7:15 PM,46.0,40.3,80,29.98,10.0,West,6.9,-,N/A,,Scattered Clouds,260,2012-10-10 00:15:00
7:35 PM,45.5,40.5,83,29.99,10.0,West,6.9,-,N/A,,Scattered Clouds,260,2012-10-10 00:35:00
7:55 PM,45.5,40.6,83,30.00,10.0,West,5.8,-,N/A,,Clear,260,2012-10-10 00:55:00
8:15 PM,45.0,40.1,83,30.00,10.0,West,8.1,-,N/A,,Clear,260,2012-10-10 01:15:00
8:35 PM,44.8,39.0,80,30.01,10.0,West,6.9,-,N/A,,Clear,270,2012-10-10 01:35:00
8:55 PM,45.0,37.6,75,30.02,10.0,WNW,10.4,-,N/A,,Clear,290,2012-10-10 01:55:00
9:15 PM,44.4,35.6,71,30.03,10.0,WNW,9.2,-,N/A,,Clear,300,2012-10-10 02:15:00
9:35 PM,43.0,34.7,73,30.04,10.0,WNW,9.2,-,N/A,,Clear,300,2012-10-10 02:35:00
9:55 PM,42.1,33.3,71,30.05,10.0,WNW,8.1,-,N/A,,Clear,290,2012-10-10 02:55:00
10:15 PM,41.5,32.0,69,30.06,10.0,WNW,9.2,-,N/A,,Clear,300,2012-10-10 03:15:00
10:35 PM,41.0,32.0,70,30.07,10.0,NW,9.2,-,N/A,,Clear,310,2012-10-10 03:35:00
10:55 PM,41.2,32.0,70,30.08,10.0,NW,9.2,-,N/A,,Mostly Cloudy,310,2012-10-10 03:55:00
11:15 PM,41.9,32.2,68,30.08,10.0,NW,9.2,-,N/A,,Overcast,310,2012-10-10 04:15:00
11:35 PM,42.1,32.5,69,30.09,10.0,WNW,8.1,-,N/A,,Overcast,300,2012-10-10 04:35:00
11:55 PM,41.2,32.2,70,30.09,10.0,NW,6.9,-,N/A,,Overcast,310,2012-10-10 04:55:00